STARLINK-33720 (63468 NORAD) Tracking and Keplerian Element Data

This shows tracking and keplerian element data for the satellite.

Feedback or suggestion? Click here.




ElementValue
Catalog63468
NameSTARLINK-33720
Epoch Orbit4079
Epoch Day354.03525219
Epoch Year2025
RAAN349.7039
Inclination43.0025
Eccentricity0.0001146
Argument of Perigee262.2143
Mean Anonmoly97.8579
Mean Motion15.27566343
Decay Rate0.00020517
L11 63468U 25070J 25354.03525219 .00020517 00000+0 75334-3 0 9996
L22 63468 43.0025 349.7039 0001146 262.2143 97.8579 15.27566343 40797



Live tracking and technical data element details for STARLINK-33720 (NORAD 63468). STARLINK-33720 can be tracked NOW for your location showing map with azimuth and elevation plus other details from your city location.







IsCatalogInMostPopularTable: catalog: 63468, numindb: 6
Update: records affected: 1



GetName: 63468 STARLINK-33720

Hit Count: updated at: Sat, 11 Apr 2026 21:32:36 GMT